Weather History for Cherry Point, NC

Change the Weather History Date:

Monday, April 7, 2014

  Actual Average Record
Temperature  
Mean Temperature 65 °F -  
Max Temperature 75 °F 69 °F 86 °F (2001)
Min Temperature 55 °F 48 °F 32 °F (2007)
Growing Degree Days 15 (Base 50)    
Moisture  
Dew Point 63 °F    
Average Humidity 85    
Maximum Humidity 94    
Minimum Humidity 71    
Precipitation  
Precipitation 0.32 in - - ()
Sea Level Pressure  
Sea Level Pressure 29.90 in    
Wind  
Wind Speed 11 mph (South)    
Max Wind Speed 17 mph    
Max Gust Speed 28 mph    
Visibility 7 miles    
Events Rain , Thunderstorm    
Averages and records for this station are not official NWS values.
T = Trace of Precipitation, MM = Missing Value Source: NWS Daily Summary

Daily Weather History Graph

Daily Weather History Graph

Search for Another Location

Airport:

Trip Planner

Search our weather history database for the weather conditions in past years. The results will help you decide how hot, cold, wet, or windy it might be!

Date:

Astronomy

Apr. 07, 2014 Rise Set
Actual Time 6:46 AM EDT 7:33 PM EDT
Civil Twilight 6:20 AM EDT 7:59 PM EDT
Nautical Twilight 5:50 AM EDT 8:29 PM EDT
Astronomical Twilight 5:19 AM EDT 9:00 PM EDT
Moon 12:46 PM EDT (4/7) 2:03 AM EDT (4/7)
Length of Visible Light 13h 38m
Length of Day
12h 47m
First Quarter, 53% of the Moon is Illuminated
Apr 7
First Quarter
Apr 15
Full
Apr 22
Last Quarter
Apr 29
New
May 6
First Quarter

Hourly Weather History & Observations

Time (EDT) Temp. Dew Point Humidity Pressure Visibility Wind Dir Wind Speed Gust Speed Precip Events Conditions
12:54 AM 55.9 °F 50.0 °F 80% 30.08 in 10.0 mi ENE 15.0 mph - N/A   Overcast
1:54 AM 57.0 °F 51.1 °F 81% 30.06 in 10.0 mi ENE 12.7 mph 21.9 mph N/A   Overcast
2:54 AM 57.9 °F 53.1 °F 84% 30.02 in 10.0 mi NE 9.2 mph - N/A   Overcast
3:23 AM 59.0 °F 54.0 °F 83% 30.02 in 10.0 mi ENE 6.9 mph - N/A   Overcast
3:54 AM 60.1 °F 55.0 °F 83% 30.01 in 10.0 mi ENE 5.8 mph - N/A   Overcast
4:54 AM 63.0 °F 59.0 °F 87% 29.96 in 10.0 mi East 12.7 mph - N/A   Overcast
5:54 AM 64.9 °F 60.1 °F 84% 29.96 in 10.0 mi ESE 16.1 mph - N/A   Overcast
6:54 AM 64.9 °F 61.0 °F 87% 29.96 in 10.0 mi ESE 15.0 mph - N/A   Overcast
7:54 AM 66.0 °F 62.1 °F 87% 29.97 in 10.0 mi SE 9.2 mph - N/A   Overcast
7:57 AM 63.0 °F 61.0 °F 93% 29.98 in 4.0 mi East 8.1 mph - N/A   Overcast
8:21 AM 64.0 °F 62.1 °F 93% 29.96 in 4.0 mi ENE 3.5 mph - N/A   Mostly Cloudy
8:54 AM 66.9 °F 63.0 °F 87% 29.94 in 10.0 mi SE 5.8 mph - N/A   Overcast
8:57 AM 64.0 °F 62.1 °F 93% 29.95 in 6.0 mi East 4.6 mph - N/A   Mostly Cloudy
9:05 AM 68.0 °F 64.0 °F 87% 29.93 in 10.0 mi ESE 10.4 mph - N/A   Overcast
9:32 AM 66.0 °F 63.0 °F 90% 29.96 in 7.0 mi South 8.1 mph - N/A   Mostly Cloudy
9:54 AM 70.0 °F 64.9 °F 84% 29.95 in 10.0 mi SSW 6.9 mph - N/A   Overcast
10:43 AM 71.1 °F 64.0 °F 78% 29.96 in 10.0 mi SSW 10.4 mph - N/A   Overcast
10:54 AM 71.1 °F 64.0 °F 78% 29.96 in 10.0 mi SSW 9.2 mph - N/A   Overcast
11:54 AM 73.0 °F 66.0 °F 79% 29.92 in 10.0 mi South 10.4 mph - N/A   Overcast
11:57 AM 70.0 °F 66.0 °F 87% 29.94 in 7.0 mi South 11.5 mph - N/A   Overcast
12:32 PM 75.0 °F 66.9 °F 76% 29.93 in 10.0 mi SSW 15.0 mph 24.2 mph N/A   Overcast
12:54 PM 73.9 °F 66.9 °F 79% 29.91 in 10.0 mi South 13.8 mph 25.3 mph N/A   Overcast
1:54 PM 73.9 °F 66.9 °F 79% 29.89 in 10.0 mi SSW 10.4 mph 23.0 mph 0.00 in   Overcast
2:01 PM 75.0 °F 66.9 °F 76% 29.88 in 10.0 mi South 16.1 mph 21.9 mph N/A   Overcast
2:54 PM 75.9 °F 66.0 °F 71% 29.88 in 10.0 mi SSW 13.8 mph 26.5 mph N/A   Overcast
3:01 PM 75.0 °F 66.0 °F 73% 29.88 in 10.0 mi SSW 17.3 mph 24.2 mph N/A   Overcast
3:54 PM 73.9 °F 64.9 °F 73% 29.85 in 10.0 mi SSW 12.7 mph 23.0 mph N/A   Overcast
4:54 PM 73.9 °F 66.0 °F 76% 29.84 in 10.0 mi SSW 10.4 mph 27.6 mph N/A   Overcast
5:54 PM 72.0 °F 66.0 °F 81% 29.83 in 10.0 mi SSW 11.5 mph - N/A   Overcast
6:24 PM 72.0 °F 66.0 °F 81% 29.84 in 10.0 mi SSW 9.2 mph - N/A   Overcast
6:35 PM 71.1 °F 66.0 °F 84% 29.84 in 2.0 mi SW 9.2 mph - 0.01 in Rain Rain
6:54 PM 70.0 °F 66.9 °F 90% 29.83 in 2.0 mi SW 10.4 mph 19.6 mph 0.15 in Rain Rain
7:16 PM 70.0 °F 66.9 °F 90% 29.84 in 3.0 mi SSW 10.4 mph 18.4 mph 0.00 in   Overcast
7:35 PM 70.0 °F 66.9 °F 90% 29.85 in 3.0 mi SW 10.4 mph - 0.00 in   Overcast
7:44 PM 70.0 °F 66.9 °F 90% 29.85 in 2.0 mi SW 11.5 mph 18.4 mph 0.00 in   Overcast
7:54 PM 70.0 °F 66.0 °F 87% 29.83 in 2.0 mi South 9.2 mph - 0.00 in   Overcast
8:54 PM 69.1 °F 64.9 °F 87% 29.83 in 2.0 mi SSW 8.1 mph - N/A   Overcast
9:01 PM 69.1 °F 64.9 °F 87% 29.85 in 2.0 mi South 8.1 mph - N/A Thunderstorm Overcast
9:54 PM 68.0 °F 64.9 °F 90% 29.83 in 2.0 mi South 9.2 mph - 0.13 in Rain , Thunderstorm Thunderstorms and Rain
10:01 PM 68.0 °F 64.9 °F 90% 29.83 in 2.0 mi South 10.4 mph - 0.02 in Rain , Thunderstorm Thunderstorms and Rain
10:17 PM 66.9 °F 64.9 °F 93% 29.84 in 2.0 mi South 8.1 mph - 0.04 in Rain , Thunderstorm Light Thunderstorms and Rain
10:29 PM 66.9 °F 64.9 °F 93% 29.83 in 2.0 mi South 9.2 mph - 0.04 in Thunderstorm Overcast
10:37 PM 66.9 °F 64.9 °F 93% 29.83 in 2.0 mi South 9.2 mph - 0.04 in   Overcast
10:52 PM 66.2 °F 64.4 °F 94% 29.83 in 2.0 mi South 9.2 mph - 0.04 in   Overcast
10:54 PM 66.9 °F 64.9 °F 93% 29.82 in 2.0 mi South 10.4 mph - 0.04 in   Overcast
11:23 PM 68.0 °F 64.9 °F 90% 29.81 in 2.0 mi South 11.5 mph - N/A   Overcast
11:54 PM 69.1 °F 66.0 °F 90% 29.79 in 2.0 mi South 13.8 mph 27.6 mph 0.00 in Rain Light Rain